Regional Weather Roundup
Issued by NWS

Home | Current Version | Previous Version | Graphics & Text | Print | Product List | Glossary On
Versions: 1 2 3 4 5 6 7 8 9 10 11 12 13 14 15 16 17 18 19 20 21 22 23 24 25 26 27 28 29 30 31 32 33 34 35 36 37 38 39 40 41 42 43 44 45 46 47 48 49 50
000
ASUS45 KTFX 282019
RWRMT
MONTANA REGIONAL WEATHER ROUNDUP
NATIONAL WEATHER SERVICE GREAT FALLS MT
200 PM MDT FRI AUG 28 2015

NOTE: "FAIR" INDICATES FEW OR NO CLOUDS BELOW 12000 FEET WITH NO
SIGNIFICANT WEATHER AND/OR OBSTRUCTIONS TO VISIBILITY.

MTZ001>007-043-282100-
WEST OF THE DIVIDE

CITY           SKY/WX    TMP DP  RH WIND       PRES   REMARKS
KALISPELL      CLOUDY    82  41  23 CALM      29.93F SMOKE
MISSOULA       CLOUDY    73  42  32 CALM      29.99F HAZE
BUTTE          CLOUDY    79  34  19 W9        30.17F HAZE
MULLAN PASS    CLOUDY    63  38  39 N6        30.18R HAZE
DEER LODGE       N/A     84  37  18 S13G21    30.10F
EUREKA           N/A     82  39  21 SE10      29.93F
HAMILTON         N/A     90  39  17 S10       29.97F
LIBBY            N/A     75  43  31 W3        29.96R
PLAINS           N/A     81  44  26 CALM      29.96F
RONAN            N/A     85  47  26 SW3       30.00F
THOMPSON FALLS   N/A     76  44  31 CALM      30.00F
$$

MTZ008-052>055-282100-
SOUTHWEST MONTANA

CITY           SKY/WX    TMP DP  RH WIND       PRES   REMARKS
BOZEMAN        PTSUNNY   81  45  28 CALM      30.12F HAZE
DILLON         CLOUDY    83  39  21 VRB6      30.15F HAZE
W YELLOWSTONE  MOSUNNY   75  34  22 S5G16     30.29F
THREE FORKS      N/A     79  56  45 CALM      30.09F
TWIN BRIDGES     N/A     76  47  35 S3        30.12F
$$

MTZ009-010-012-014-046-048-049-054-282100-
EAST SLOPES AND CENTRAL MONTANA

CITY           SKY/WX    TMP DP  RH WIND       PRES   REMARKS
CUT BANK       CLOUDY    80  32  17 S8        29.98F HAZE
GREAT FALLS    CLOUDY    89  29  11 SW14G25   30.00F HAZE
MALMSTROM AFB  CLOUDY    87  32  13 SW8G18    29.99F
HELENA         CLOUDY    82  48  30 W7        30.04F
CONRAD           N/A     84  40  21 S13       30.01F
$$

MTZ011-013-016-021-045-047-050-051-282100-
NORTH CENTRAL MONTANA

CITY           SKY/WX    TMP DP  RH WIND       PRES   REMARKS
HAVRE          CLOUDY    88  39  17 W15       29.93F HAZE
LEWISTOWN      MOSUNNY   86  32  14 SW7       30.07F
N BAR RANCH      N/A     86  27  11 NW18      30.10F
CHINOOK          N/A     84  45  24 W8        29.93F
FORT BENTON      N/A     90  34  13 S8          N/A
$$

MTZ017>020-022>027-061-062-282100-
NORTHEAST MONTANA

CITY           SKY/WX    TMP DP  RH WIND       PRES   REMARKS
GLASGOW        PTSUNNY   87  39  18 NW14      29.92S HAZE
JORDAN           N/A     88  38  17 W15G21    29.96
SIDNEY         MOSUNNY   90  57  33 SE10      29.89S
WOLF POINT     CLOUDY    91  44  19 W14       29.90F HAZE
MALTA            N/A     83  47  28 SW8       29.91F
PLENTYWOOD       N/A     88  45  22 SW12G17   29.89S
POPLAR           N/A     88  48  25 SW9       29.90F
SCOBEY           N/A     85  45  24 W15       29.90F
$$

MTZ028>42-056>058-282100-
SOUTHCENTRAL AND SOUTHEAST MONTANA

CITY           SKY/WX    TMP DP  RH WIND       PRES   REMARKS
BAKER          SUNNY     85  48  27 W9        29.99F
BILLINGS       PTSUNNY   84  44  24 W10       30.08F
LIVINGSTON     SUNNY     88  37  16 SW16G23   30.10F
MILES CITY     CLOUDY    87  43  21 W12       29.98S HAZE
EKALAKA          N/A     81  44  26 W9        30.02S
FORSYTH          N/A     84  46  26 SW10      30.00F
LAUREL           N/A     86  45  23 SE6       30.06F
ROUNDUP          N/A     89  33  13 S3        29.95F
$$

REGIONAL REPORTS...DAKOTAS

CITY           SKY/WX    TMP DP  RH WIND       PRES   REMARKS
WILLISTON      SUNNY     87  60  40 S8        29.89S
MINOT          SUNNY     84  57  39 W5        29.86S
DICKINSON      SUNNY     89  49  25 N5        29.92S
BEACH            N/A     86  45  23 W10       29.97S HAZE
CROSBY           N/A     82  59  44 CALM      29.88S
BISMARCK       SUNNY     88  66  48 SW12      29.89S HX  90
GRAND FORKS    MOSUNNY   85  67  54 SW25G31   29.81S
FARGO          MOSUNNY   82  66  58 S20G25    29.89F
BUFFALO SD       N/A     87  48  25 W12       29.94S
RAPID CITY     SUNNY     85  56  37 N8        30.04S
$$

REGIONAL REPORTS...WYOMING/IDAHO/WASHINGTON

CITY           SKY/WX    TMP DP  RH WIND       PRES   REMARKS
GILLETTE       SUNNY     84  42  22 W7        30.13F
SHERIDAN       SUNNY     89  39  17 CALM      30.09F HAZE
BUFFALO WY     SUNNY     84  39  20 VRB5      30.17F
CODY           SUNNY     84  41  21 SE8G16    30.15F
YELLOWSTONE LA   N/A     67  40  37 E7        30.39F
IDAHO FALLS    MOSUNNY   84  41  21 SW7       30.17F
SALMON         CLOUDY    79  43  27 NW6       30.04F
BOISE          MOSUNNY   89  38  16 N8        29.99F
SPOKANE        CLOUDY    76  43  30 W12       29.99F
$$

REGIONAL REPORTS...ALBERTA

CITY           SKY/WX    TMP DP  RH WIND       PRES   REMARKS
EDMONTON       SUNNY     81  41  24 SW7       29.72F
CALGARY        PTSUNNY   77  45  31 SW12      29.85F SMOKE
LETHBRIDGE     CLOUDY    82  37  20 SW16G24   29.90F
MEDICINE HAT   CLOUDY    86  41  20 W12G18    29.86F SMOKE
WATERTON GATE    N/A     79  41  25 SW12G18     N/A
CARDSTON         N/A     84  39  20 S9G17       N/A
MILK RIVER       N/A     82  36  18 SW10        N/A
ONEFOUR          N/A     86  30  13 W13         N/A
$$

REGIONAL REPORTS...SASKATCHEWAN

CITY           SKY/WX    TMP DP  RH WIND       PRES   REMARKS
SWIFT CURRENT  MOSUNNY   79  54  41 W14       29.89S HAZE
REGINA         CLOUDY    79  61  53 E5        29.86F
SASKATOON      PTSUNNY   79  57  47 S8        29.85F
CYPRESS HILLS    N/A     81  36  19 W9G18       N/A
VAL MARIE        N/A     84  41  21 W9          N/A
ROCKGLEN         N/A     77  48  36 SW17        N/A
ASSINIBOIA       N/A     84  41  21 S14         N/A
$$



USA.gov is the U.S. government's official web portal to all federal, state and local government web resources and services.